Fullerton, CA

4:16 PM PDT on April 28, 2017 (GMT -0700)
Fullerton Municipal

Weather History for KFUL - July, 2014

Change the Weather History Date:

Monday, July 21, 2014

  Actual Average Record
Temperature  
Mean Temperature 76 °F 74 °F  
Max Temperature 85 °F 84 °F 100 °F (2016)
Min Temperature 67 °F 65 °F 60 °F (1999)
Degree Days  
Heating Degree Days 0 0  
Month to date heating degree days 0 0  
Since 1 June heating degree days 0 2  
Since 1 July heating degree days 0 0  
Cooling Degree Days 11 9  
Month to date cooling degree days 243 177  
Year to date cooling degree days 818 445  
Since 1 June cooling degree days 460 322  
Growing Degree Days 25 (Base 50)    
Moisture  
Dew Point 60 °F    
Average Humidity 61    
Maximum Humidity 81    
Minimum Humidity 40    
Precipitation  
Precipitation 0.00 in 0.00 in 0.00 in (2017)
Month to date precipitation T 0.03  
Year to date precipitation 3.46 9.68  
Since 1 July precipitation T  
Snow  
Snow 0.00 in - - ()
Month to date snowfall 0.0  
Year to date snowfall 0.0  
Snow Depth 0.00 in    
Sea Level Pressure  
Sea Level Pressure 30.01 in    
Wind  
Wind Speed 3 mph (West)    
Max Wind Speed 13 mph    
Max Gust Speed 21 mph    
Visibility 10 miles    
Events      
T = Trace of Precipitation, MM = Missing Value Source: NWS Daily Summary

Daily Weather History Graph

Daily Weather History Graph

Search for Another Location

Airport or City:

Trip Planner

Search our weather history database for the weather conditions in past years. The results will help you decide how hot, cold, wet, or windy it might be!

Date:

Astronomy

Jul. 21, 2014 Rise Set
Actual Time 5:56 AM PDT 8:00 PM PDT
Civil Twilight 5:27 AM PDT 8:28 PM PDT
Nautical Twilight 4:53 AM PDT 9:02 PM PDT
Astronomical Twilight 4:17 AM PDT 9:39 PM PDT
Moon 1:46 AM PDT (7/21) 3:49 PM PDT (7/21)
Length of Visible Light 15h 00m
Length of Day
14h 04m
Waning Crescent, 23% of the Moon is Illuminated
Jul 21
Waning Crescent
Jul 26
New
Aug 3
First Quarter
Aug 10
Full
Aug 17
Last Quarter

Hourly Weather History & Observations

Time (PDT) Temp. Heat Index Dew Point Humidity Pressure Visibility Wind Dir Wind Speed Gust Speed Precip Events Conditions
12:53 AM 68.0 °F - 60.1 °F 76% 30.00 in 10.0 mi West 3.5 mph - N/A   Clear
1:53 AM 68.0 °F - 60.1 °F 76% 29.99 in 10.0 mi Calm Calm - N/A   Clear
2:53 AM 68.0 °F - 61.0 °F 78% 29.99 in 10.0 mi Calm Calm - N/A   Clear
3:53 AM 66.9 °F - 60.1 °F 79% 29.99 in 10.0 mi Calm Calm - N/A   Clear
4:53 AM 66.9 °F - 60.1 °F 79% 29.99 in 10.0 mi Calm Calm - N/A   Scattered Clouds
5:00 AM 66.9 °F - 60.1 °F 79% 29.99 in 10.0 mi North 3.5 mph - N/A   Mostly Cloudy
5:51 AM 66.2 °F - 60.8 °F 83% 30.00 in 10.0 mi Calm Calm - N/A   Mostly Cloudy
5:53 AM 66.9 °F - 60.1 °F 79% 30.01 in 10.0 mi Calm Calm - N/A   Mostly Cloudy
6:39 AM 68.0 °F - 61.0 °F 78% 30.02 in 10.0 mi Calm Calm - N/A   Scattered Clouds
6:53 AM 69.1 °F - 61.0 °F 75% 30.02 in 10.0 mi Calm Calm - N/A   Clear
7:53 AM 70.0 °F - 60.1 °F 71% 30.04 in 10.0 mi South 3.5 mph - N/A   Clear
8:45 AM 72.0 °F - 61.0 °F 68% 30.06 in 10.0 mi SW 5.8 mph - N/A   Mostly Cloudy
8:53 AM 73.0 °F - 61.0 °F 66% 30.05 in 10.0 mi Calm Calm - N/A   Mostly Cloudy
9:53 AM 73.9 °F - 60.1 °F 62% 30.06 in 10.0 mi SSW 5.8 mph - N/A   Overcast
10:50 AM 75.2 °F - 60.8 °F 61% 30.06 in 10.0 mi Variable 3.5 mph - N/A   Scattered Clouds
10:53 AM 77.0 °F - 60.1 °F 56% 30.05 in 10.0 mi Variable 4.6 mph - N/A   Scattered Clouds
11:53 AM 81.0 °F 81.6 °F 60.1 °F 49% 30.03 in 10.0 mi North - - N/A   Clear
12:53 PM 84.0 °F 83.8 °F 59.0 °F 43% 30.01 in 10.0 mi West 6.9 mph - N/A   Clear
1:53 PM 84.9 °F 84.8 °F 60.1 °F 43% 30.01 in 10.0 mi Variable 5.8 mph - N/A   Clear
2:53 PM 84.0 °F 83.8 °F 59.0 °F 43% 30.00 in 10.0 mi Variable 6.9 mph - N/A   Clear
3:53 PM 84.0 °F 83.5 °F 57.9 °F 41% 29.99 in 10.0 mi West 8.1 mph - N/A   Clear
4:53 PM 82.0 °F 82.1 °F 59.0 °F 45% 29.99 in 10.0 mi NW 8.1 mph - N/A   Clear
5:53 PM 80.1 °F 80.7 °F 59.0 °F 48% 29.97 in 10.0 mi WNW 8.1 mph - N/A   Clear
6:53 PM 78.1 °F - 60.1 °F 54% 29.97 in 10.0 mi WNW 9.2 mph - N/A   Clear
7:53 PM 73.9 °F - 60.1 °F 62% 29.97 in 10.0 mi WNW 6.9 mph - N/A   Clear
8:53 PM 72.0 °F - 61.0 °F 68% 29.98 in 10.0 mi Variable 3.5 mph - N/A   Clear
9:53 PM 71.1 °F - 61.0 °F 70% 29.99 in 10.0 mi Calm Calm - N/A   Clear
10:53 PM 70.0 °F - 60.1 °F 71% 30.01 in 10.0 mi Calm Calm - N/A   Clear
11:53 PM 69.1 °F - 60.1 °F 73% 30.01 in 10.0 mi Calm Calm - N/A   Clear